| time (UTC) | temp C | wind direction | speed KPH | gust KPH | rain 1hr cm | rain 24hr cm | rain mn cm | humidity % | barometer mb |
| 20260507011542 | 11 | 292 | 14.5 | 22.5 | 0.00 | 0.00 | 0.00 | 36 | 1014.1 |
| 20260507004547 | 11 | 316 | 12.9 | 25.7 | 0.00 | 0.00 | 0.00 | 36 | 1014.2 |
| 20260507003048 | 11 | 293 | 16.1 | 27.4 | 0.00 | 0.00 | 0.00 | 35 | 1014.3 |
| 20260507001552 | 11 | 278 | 25.7 | 37.0 | 0.00 | 0.00 | 0.00 | 34 | 1014.4 |
| 20260507000051 | 12 | 295 | 20.9 | 45.1 | 0.00 | 0.00 | 0.00 | 35 | 1014.3 |
| 20260506234552 | 11 | 300 | 24.1 | 35.4 | 0.00 | 0.00 | 0.00 | 36 | 1014.5 |
| 20260506233047 | 12 | 286 | 22.5 | 33.8 | 0.00 | 0.00 | 0.00 | 34 | 1014.5 |
| 20260506231549 | 12 | 289 | 20.9 | 29.0 | 0.00 | 0.00 | 0.00 | 35 | 1014.6 |
| 20260506230045 | 11 | 307 | 19.3 | 37.0 | 0.00 | 0.00 | 0.00 | 37 | 1014.6 |
| 20260506224542 | 11 | 322 | 29.0 | 41.8 | 0.00 | 0.00 | 0.00 | 36 | 1014.6 |
| 20260506223038 | 12 | 303 | 24.1 | 40.2 | 0.00 | 0.00 | 0.00 | 35 | 1014.9 |
| 20260506221549 | 12 | 297 | 29.0 | 38.6 | 0.00 | 0.00 | 0.00 | 36 | 1015.0 |
| 20260506220039 | 12 | 289 | 29.0 | 43.5 | 0.00 | 0.00 | 0.00 | 36 | 1014.9 |
| 20260506214545 | 11 | 311 | 14.5 | 33.8 | 0.00 | 0.00 | 0.00 | 41 | 1015.0 |
| 20260506213042 | 11 | 319 | 17.7 | 33.8 | 0.00 | 0.00 | 0.00 | 39 | 1015.3 |
| 20260506211540 | 11 | 322 | 24.1 | 33.8 | 0.00 | 0.00 | 0.00 | 39 | 1015.4 |
| 20260506210051 | 10 | 303 | 24.1 | 35.4 | 0.00 | 0.00 | 0.00 | 39 | 1015.7 |
| 20260506204549 | 11 | 276 | 27.4 | 37.0 | 0.00 | 0.00 | 0.00 | 39 | 1015.9 |
| 20260506203051 | 10 | 301 | 20.9 | 33.8 | 0.00 | 0.00 | 0.00 | 40 | 1016.0 |
| 20260506201606 | 10 | 290 | 17.7 | 35.4 | 0.00 | 0.00 | 0.00 | 42 | 1016.1 |
| 20260506200050 | 10 | 293 | 16.1 | 46.7 | 0.00 | 0.00 | 0.00 | 43 | 1016.2 |
| 20260506194552 | 10 | 271 | 17.7 | 37.0 | 0.00 | 0.00 | 0.00 | 43 | 1016.4 |
| 20260506193051 | 10 | 299 | 25.7 | 37.0 | 0.00 | 0.00 | 0.00 | 44 | 1016.5 |
| 20260506191546 | 10 | 287 | 20.9 | 40.2 | 0.00 | 0.00 | 0.00 | 43 | 1016.7 |
| 20260506190045 | 9 | 292 | 20.9 | 33.8 | 0.00 | 0.00 | 0.00 | 44 | 1016.6 |
| 20260506184550 | 9 | 327 | 20.9 | 38.6 | 0.00 | 0.00 | 0.00 | 44 | 1016.8 |
| 20260506183054 | 8 | 300 | 27.4 | 38.6 | 0.00 | 0.00 | 0.00 | 45 | 1017.1 |
| 20260506181550 | 8 | 298 | 25.7 | 41.8 | 0.00 | 0.00 | 0.00 | 48 | 1017.0 |
| 20260506180051 | 7 | 313 | 30.6 | 41.8 | 0.00 | 0.00 | 0.00 | 47 | 1017.3 |
| 20260506174545 | 7 | 315 | 25.7 | 35.4 | 0.00 | 0.00 | 0.00 | 48 | 1017.5 |
| 20260506173112 | 7 | 307 | 22.5 | 35.4 | 0.00 | 0.00 | 0.00 | 49 | 1017.5 |
| 20260506171553 | 7 | 292 | 17.7 | 35.4 | 0.00 | 0.00 | 0.00 | 50 | 1017.6 |
| 20260506170042 | 7 | 311 | 20.9 | 38.6 | 0.00 | 0.00 | 0.00 | 51 | 1018.0 |
| 20260506164546 | 7 | 302 | 19.3 | 33.8 | 0.00 | 0.00 | 0.00 | 53 | 1018.0 |
| 20260506163101 | 6 | 340 | 14.5 | 29.0 | 0.00 | 0.00 | 0.00 | 54 | 1018.1 |
| 20260506161545 | 7 | 319 | 20.9 | 30.6 | 0.00 | 0.00 | 0.00 | 53 | 1018.1 |
| 20260506160046 | 6 | 331 | 16.1 | 27.4 | 0.00 | 0.00 | 0.00 | 56 | 1018.1 |
| 20260506154547 | 6 | 305 | 14.5 | 29.0 | 0.00 | 0.00 | 0.00 | 56 | 1018.3 |
| 20260506153048 | 6 | 299 | 16.1 | 25.7 | 0.00 | 0.00 | 0.00 | 57 | 1018.3 |
| 20260506151546 | 5 | 285 | 16.1 | 20.9 | 0.00 | 0.00 | 0.00 | 57 | 1018.4 |
| 20260506150116 | 5 | 309 | 16.1 | 24.1 | 0.00 | 0.00 | 0.00 | 59 | 1018.3 |
| 20260506144547 | 5 | 295 | 12.9 | 22.5 | 0.00 | 0.00 | 0.00 | 59 | 1018.3 |
| 20260506143042 | 4 | 305 | 9.7 | 17.7 | 0.00 | 0.00 | 0.00 | 63 | 1018.4 |
| 20260506141554 | 4 | 287 | 4.8 | 11.3 | 0.00 | 0.00 | 0.00 | 67 | 1018.4 |
| 20260506140055 | 3 | 304 | 8.0 | 12.9 | 0.00 | 0.00 | 0.00 | 68 | 1018.3 |
| 20260506134546 | 3 | 309 | 4.8 | 9.7 | 0.00 | 0.00 | 0.00 | 72 | 1018.2 |
| 20260506133045 | 2 | 302 | 8.0 | 11.3 | 0.00 | 0.00 | 0.00 | 72 | 1018.1 |
| 20260506131543 | 2 | 309 | 6.4 | 9.7 | 0.00 | 0.00 | 0.00 | 73 | 1018.1 |
| 20260506130053 | 1 | 304 | 3.2 | 8.0 | 0.00 | 0.00 | 0.00 | 75 | 1017.9 |
| 20260506124540 | 1 | 0 | 0.0 | 4.8 | 0.00 | 0.00 | 0.00 | 77 | 1017.8 |
| 20260506123049 | 0 | 320 | 1.6 | 4.8 | 0.00 | 0.00 | 0.00 | 77 | 1017.7 |
| 20260506121545 | 0 | 329 | 0.0 | 3.2 | 0.00 | 0.00 | 0.00 | 78 | 1017.6 |
| 20260506120050 | -1 | 329 | 1.6 | 6.4 | 0.00 | 0.00 | 0.00 | 78 | 1017.3 |
| 20260506114549 | -1 | 329 | 0.0 | 6.4 | 0.00 | 0.00 | 0.00 | 78 | 1017.1 |
| 20260506113048 | -1 | 324 | 1.6 | 6.4 | 0.00 | 0.00 | 0.00 | 79 | 1016.7 |
| 20260506111552 | -2 | 297 | 1.6 | 4.8 | 0.00 | 0.00 | 0.00 | 79 | 1016.5 |
| 20260506110047 | -1 | 310 | 0.0 | 1.6 | 0.00 | 0.00 | 0.00 | 78 | 1016.3 |
| 20260506104545 | -1 | 0 | 0.0 | 3.2 | 0.00 | 0.00 | 0.00 | 77 | 1016.5 |
| 20260506103046 | -2 | 310 | 1.6 | 4.8 | 0.00 | 0.00 | 0.00 | 78 | 1016.4 |
| 20260506101548 | -1 | 288 | 0.0 | 3.2 | 0.00 | 0.00 | 0.00 | 77 | 1016.2 |
| 20260506100047 | -1 | 0 | 1.6 | 3.2 | 0.00 | 0.00 | 0.00 | 76 | 1016.2 |
| 20260506094548 | -1 | 288 | 1.6 | 3.2 | 0.00 | 0.00 | 0.00 | 76 | 1016.0 |
| 20260506093103 | -1 | 252 | 1.6 | 3.2 | 0.00 | 0.00 | 0.00 | 76 | 1016.0 |
| 20260506091546 | 0 | 348 | 1.6 | 6.4 | 0.00 | 0.00 | 0.00 | 73 | 1015.7 |
| 20260506090055 | 0 | 339 | 4.8 | 9.7 | 0.00 | 0.00 | 0.00 | 72 | 1015.9 |
| 20260506084542 | 0 | 331 | 3.2 | 4.8 | 0.00 | 0.00 | 0.00 | 73 | 1015.6 |
| 20260506083043 | -1 | 330 | 3.2 | 4.8 | 0.00 | 0.00 | 0.00 | 73 | 1015.3 |
| 20260506081548 | -1 | 330 | 3.2 | 4.8 | 0.00 | 0.00 | 0.00 | 73 | 1015.3 |
| 20260506073042 | 0 | 319 | 4.8 | 8.0 | 0.00 | 0.00 | 0.00 | 70 | 1015.6 |
| 20260506071548 | 0 | 0 | 0.0 | 3.2 | 0.00 | 0.00 | 0.00 | 70 | 1015.6 |
| 20260506061556 | 1 | 303 | 4.8 | 8.0 | 0.00 | 0.00 | 0.00 | 65 | 1015.3 |
| 20260506044541 | 2 | 311 | 4.8 | 6.4 | 0.00 | 0.00 | 0.00 | 61 | 1015.0 |
| 20260506043052 | 3 | 340 | 4.8 | 9.7 | 0.00 | 0.00 | 0.00 | 60 | 1015.2 |
| 20260506041602 | 3 | 311 | 8.0 | 11.3 | 0.00 | 0.00 | 0.00 | 59 | 1015.2 |
| 20260506040054 | 3 | 302 | 6.4 | 9.7 | 0.00 | 0.00 | 0.00 | 58 | 1015.2 |
| 20260506034544 | 3 | 323 | 3.2 | 8.0 | 0.00 | 0.00 | 0.00 | 58 | 1015.1 |
| 20260506033043 | 3 | 308 | 4.8 | 8.0 | 0.00 | 0.00 | 0.00 | 57 | 1015.0 |
| 20260506031544 | 4 | 308 | 6.4 | 9.7 | 0.00 | 0.00 | 0.00 | 55 | 1015.0 |
| 20260506030038 | 5 | 302 | 6.4 | 11.3 | 0.00 | 0.00 | 0.00 | 54 | 1014.8 |
| 20260506024550 | 5 | 320 | 8.0 | 14.5 | 0.00 | 0.00 | 0.00 | 53 | 1014.7 |
| 20260506023052 | 5 | 328 | 8.0 | 12.9 | 0.00 | 0.00 | 0.00 | 52 | 1014.3 |
| 20260506021547 | 6 | 335 | 9.7 | 16.1 | 0.00 | 0.00 | 0.00 | 51 | 1014.0 |
| 20260506020116 | 6 | 324 | 9.7 | 16.1 | 0.00 | 0.00 | 0.00 | 51 | 1013.8 |
| 20260506014552 | 6 | 331 | 8.0 | 16.1 | 0.00 | 0.00 | 0.00 | 50 | 1013.6 |
| 20260506013045 | 7 | 335 | 9.7 | 27.4 | 0.00 | 0.00 | 0.00 | 48 | 1013.6 |